Retour au catalogue

TELSTAR 14R

ActifCommunicationsGEO
NORAD 37602·PAYLOAD·🇨🇦 Canada

Lancé May 20, 2011 depuis Baikonur Cosmodrome

Loading…

TLE

FraisSource: Space-Track

Époque: Sep 14, 2026, 22:24 UTC

1 37602U 11021A   26257.93352745 -.00000128  00000-0  00000-0 0  9995
2 37602   0.2410  84.8287 0006182 280.9243 334.4593  0.98986170 56728

Suivez TELSTAR 14R en temps réel avec AllMySat

Download on the App Store